Orbital Elements at Epoch 2459000.5 (2020-May-31.0) TDB
Reference: JPL 39 (heliocentric ecliptic J2000)
Element | Value | Uncertainty (1-sigma) | Units |
e | .06294347996078321 | 4.1695e-08 | |
a | 2.330535878956161 | 6.5396e-09 | au |
q | 2.183843840561198 | 9.7295e-08 | au |
i | 9.495106741890831 | 4.4503e-06 | deg |
node | 172.8482640134923 | 1.9993e-05 | deg |
peri | 182.7460546557497 | 3.3675e-05 | deg |
M | 74.56089756942687 | 2.6053e-05 | deg |
tp | 2458731.352256205547 (2019-Sep-04.85225621) | 9.4218e-05 | TDB |
period | 1299.517453847461 3.56 | 5.4698e-06 1.498e-08 | d yr |
n | .2770259059885296 | 1.166e-09 | deg/d |
Q | 2.477227917351125 | 6.9512e-09 | au |
|
| | Orbit Determination Parameters
Additional Information
|